• In Hungary
  • List of Countries
  • For 7 days
  • Water Temperature
  • Satellite Maps
  • Weather Map
  • News
  • Weather Widgets
  • user-avatar
    Login

    Hourly Weather Lyczana

    Today, 19 January, Friday

    Time Temperature Precipitation Wind Pressure Humidity
    00:00 -1°C° 0 mm 7 mps 716 mmHg 70%
    01:00 -1°C° 0 mm 7 mps 716 mmHg 71%
    02:00 -1°C° 0.1 mm 6 mps 716 mmHg 72%
    03:00 -2°C° 0.1 mm 6 mps 716 mmHg 72%
    04:00 -2°C° 0.1 mm 6 mps 717 mmHg 73%
    05:00 -2°C° 0 mm 6 mps 717 mmHg 74%
    06:00 -2°C° 0 mm 6 mps 718 mmHg 75%
    07:00 -3°C° 0 mm 6 mps 718 mmHg 76%
    08:00 -2°C° 0 mm 6 mps 719 mmHg 73%
    09:00 -2°C° 0 mm 7 mps 720 mmHg 70%
    10:00 -1°C° 0 mm 7 mps 721 mmHg 67%
    11:00 -1°C° 0 mm 6 mps 721 mmHg 66%
    12:00 -1°C° 0 mm 6 mps 722 mmHg 64%
    13:00 +1°C° 0 mm 5 mps 722 mmHg 63%
    14:00 0°C° 0 mm 4 mps 722 mmHg 68%
    15:00 0°C° 0 mm 3 mps 723 mmHg 73%
    16:00 -1°C° 0 mm 2 mps 723 mmHg 78%
    17:00 -1°C° 0 mm 2 mps 723 mmHg 81%
    18:00 +1°C° 0 mm 1 mps 724 mmHg 83%
    19:00 0°C° 0 mm 1 mps 724 mmHg 86%
    20:00 0°C° 0.1 mm 1 mps 724 mmHg 86%
    21:00 0°C° 0.1 mm 1 mps 725 mmHg 86%
    22:00 +1°C° 0.1 mm 1 mps 725 mmHg 87%
    23:00 0°C° 0 mm 1 mps 725 mmHg 88%

    Tomorrow, 20 January, Saturday

    Time Temperature Precipitation Wind Pressure Humidity
    00:00 0°C° 0 mm 1 mps 725 mmHg 89%
    01:00 0°C° 0 mm 1 mps 725 mmHg 90%
    02:00 -1°C° 0 mm 1 mps 725 mmHg 90%
    03:00 -1°C° 0 mm 1 mps 725 mmHg 90%
    04:00 -1°C° 0 mm 1 mps 725 mmHg 91%
    05:00 -1°C° 0 mm 1 mps 725 mmHg 90%
    06:00 -1°C° 0 mm 1 mps 725 mmHg 90%
    07:00 -1°C° 0 mm 1 mps 725 mmHg 90%
    08:00 0°C° 0 mm 1 mps 725 mmHg 85%
    09:00 -1°C° 0 mm 2 mps 725 mmHg 80%
    10:00 +1°C° 0 mm 2 mps 725 mmHg 75%
    11:00 +1°C° 0 mm 2 mps 725 mmHg 71%
    12:00 +2°C° 0 mm 2 mps 724 mmHg 67%
    13:00 +3°C° 0 mm 2 mps 724 mmHg 63%
    14:00 +2°C° 0 mm 2 mps 724 mmHg 68%
    15:00 +1°C° 0 mm 2 mps 723 mmHg 73%
    16:00 -1°C° 0 mm 2 mps 723 mmHg 78%
    17:00 -1°C° 0.2 mm 2 mps 723 mmHg 81%
    18:00 -1°C° 0.2 mm 2 mps 723 mmHg 84%
    19:00 -1°C° 0.2 mm 3 mps 722 mmHg 87%
    20:00 -2°C° 0 mm 3 mps 722 mmHg 88%
    21:00 -2°C° 0 mm 3 mps 722 mmHg 88%
    22:00 -4°C° 0 mm 3 mps 723 mmHg 88%
    23:00 -3°C° 0 mm 2 mps 723 mmHg 89%

    Day after tomorrow, 21 January, Sunday

    Time Temperature Precipitation Wind Pressure Humidity
    00:00 -3°C° 0 mm 2 mps 723 mmHg 89%
    01:00 -1°C° 0 mm 1 mps 723 mmHg 89%
    02:00 -1°C° 0.1 mm 1 mps 723 mmHg 89%
    03:00 -1°C° 0.1 mm 1 mps 723 mmHg 89%
    04:00 -1°C° 0.1 mm 1 mps 723 mmHg 89%
    05:00 -1°C° 0.2 mm 1 mps 723 mmHg 90%
    06:00 -1°C° 0.2 mm 1 mps 724 mmHg 91%
    07:00 -2°C° 0.2 mm 0 mps 724 mmHg 92%
    08:00 0°C° 0.3 mm 1 mps 724 mmHg 91%
    09:00 0°C° 0.3 mm 1 mps 725 mmHg 91%
    10:00 0°C° 0.3 mm 1 mps 725 mmHg 90%
    11:00 -2°C° 0.3 mm 2 mps 726 mmHg 88%
    12:00 -2°C° 0.3 mm 2 mps 726 mmHg 86%
    13:00 -1°C° 0.3 mm 2 mps 726 mmHg 85%
    14:00 -2°C° 0.1 mm 2 mps 727 mmHg 85%
    15:00 -2°C° 0.1 mm 2 mps 727 mmHg 86%
    16:00 -2°C° 0.1 mm 2 mps 728 mmHg 86%
    17:00 -2°C° 0.1 mm 2 mps 728 mmHg 87%
    18:00 -3°C° 0.1 mm 2 mps 729 mmHg 88%
    19:00 -4°C° 0.1 mm 3 mps 729 mmHg 89%
    20:00 -3°C° 0.1 mm 2 mps 730 mmHg 90%
    21:00 -3°C° 0.1 mm 2 mps 730 mmHg 90%
    22:00 -4°C° 0.1 mm 2 mps 730 mmHg 90%
    23:00 -4°C° 0 mm 2 mps 730 mmHg 90%

    22 January, Monday

    Time Temperature Precipitation Wind Pressure Humidity
    00:00 -4°C° 0 mm 2 mps 730 mmHg 91%
    01:00 -2°C° 0 mm 1 mps 730 mmHg 91%
    02:00 -2°C° 0 mm 1 mps 730 mmHg 92%
    03:00 -3°C° 0 mm 1 mps 731 mmHg 92%
    04:00 -3°C° 0 mm 1 mps 731 mmHg 93%
    05:00 -3°C° 0 mm 1 mps 731 mmHg 93%
    06:00 -3°C° 0 mm 1 mps 731 mmHg 94%
    07:00 -4°C° 0 mm 1 mps 731 mmHg 94%
    08:00 -3°C° 0 mm 1 mps 731 mmHg 90%
    09:00 -2°C° 0 mm 1 mps 731 mmHg 85%
    10:00 -1°C° 0 mm 1 mps 731 mmHg 81%
    11:00 -1°C° 0 mm 1 mps 731 mmHg 77%
    12:00 -2°C° 0 mm 2 mps 731 mmHg 74%
    13:00 -2°C° 0 mm 2 mps 731 mmHg 71%
    14:00 -2°C° 0 mm 2 mps 730 mmHg 73%
    15:00 -2°C° 0 mm 2 mps 730 mmHg 76%
    16:00 -3°C° 0 mm 2 mps 730 mmHg 78%
    17:00 -3°C° 0 mm 2 mps 730 mmHg 79%
    18:00 -3°C° 0 mm 2 mps 730 mmHg 79%
    19:00 -4°C° 0 mm 3 mps 730 mmHg 79%
    20:00 -4°C° 0 mm 3 mps 730 mmHg 79%
    21:00 -4°C° 0 mm 3 mps 730 mmHg 79%
    22:00 -4°C° 0 mm 3 mps 729 mmHg 79%
    23:00 -4°C° 0 mm 3 mps 729 mmHg 78%

    23 January, Tuesday

    Time Temperature Precipitation Wind Pressure Humidity
    00:00 -4°C° 0 mm 3 mps 729 mmHg 78%
    01:00 -4°C° 0 mm 3 mps 729 mmHg 77%
    02:00 -4°C° 0 mm 3 mps 729 mmHg 79%
    03:00 -4°C° 0 mm 3 mps 728 mmHg 81%
    04:00 -4°C° 0 mm 3 mps 728 mmHg 82%
    05:00 -4°C° 0.1 mm 3 mps 729 mmHg 83%
    06:00 -4°C° 0.1 mm 3 mps 729 mmHg 84%
    07:00 -2°C° 0.1 mm 3 mps 729 mmHg 85%
    08:00 -2°C° 0.1 mm 2 mps 730 mmHg 85%
    09:00 -2°C° 0.1 mm 2 mps 731 mmHg 84%
    10:00 -1°C° 0.1 mm 2 mps 731 mmHg 83%
    11:00 -1°C° 0.1 mm 2 mps 732 mmHg 84%
    12:00 +1°C° 0.1 mm 2 mps 732 mmHg 85%
    13:00 +1°C° 0.1 mm 2 mps 732 mmHg 86%
    14:00 +1°C° 0.1 mm 2 mps 732 mmHg 88%
    15:00 +1°C° 0.1 mm 2 mps 733 mmHg 90%
    16:00 +1°C° 0.1 mm 2 mps 733 mmHg 91%
    17:00 +1°C° 0 mm 2 mps 733 mmHg 92%
    18:00 -1°C° 0 mm 2 mps 733 mmHg 92%
    19:00 -1°C° 0 mm 2 mps 733 mmHg 92%
    20:00 -1°C° 0.3 mm 2 mps 733 mmHg 92%
    21:00 -1°C° 0.3 mm 2 mps 734 mmHg 92%
    22:00 +1°C° 0.3 mm 2 mps 734 mmHg 91%
    23:00 +1°C° 0.7 mm 2 mps 734 mmHg 92%

    24 January, Wednesday

    Time Temperature Precipitation Wind Pressure Humidity
    00:00 +1°C° 0.7 mm 2 mps 734 mmHg 93%
    01:00 +1°C° 0.7 mm 2 mps 734 mmHg 93%
    02:00 +1°C° 0.7 mm 2 mps 734 mmHg 94%
    03:00 +1°C° 0.7 mm 2 mps 735 mmHg 95%
    04:00 +1°C° 0.7 mm 2 mps 735 mmHg 96%
    05:00 +1°C° 0.3 mm 2 mps 736 mmHg 96%
    06:00 +1°C° 0.3 mm 2 mps 736 mmHg 96%
    07:00 +1°C° 0.3 mm 2 mps 737 mmHg 96%
    08:00 +2°C° 0.1 mm 2 mps 737 mmHg 96%
    09:00 +2°C° 0.1 mm 2 mps 738 mmHg 96%
    10:00 +2°C° 0.1 mm 2 mps 739 mmHg 96%
    11:00 +2°C° 0 mm 2 mps 739 mmHg 95%
    12:00 +3°C° 0 mm 2 mps 739 mmHg 95%
    13:00 +4°C° 0 mm 1 mps 739 mmHg 94%
    14:00 +3°C° 0 mm 1 mps 739 mmHg 94%
    15:00 +3°C° 0 mm 1 mps 740 mmHg 95%
    16:00 +3°C° 0 mm 1 mps 740 mmHg 95%
    17:00 +2°C° 0 mm 1 mps 740 mmHg 95%
    18:00 +2°C° 0 mm 1 mps 740 mmHg 95%
    19:00 0°C° 0 mm 0 mps 741 mmHg 95%
    20:00 +1°C° 0 mm 1 mps 741 mmHg 95%
    21:00 +1°C° 0 mm 1 mps 741 mmHg 94%
    22:00 +1°C° 0 mm 1 mps 741 mmHg 94%
    23:00 +1°C° 0 mm 1 mps 741 mmHg 93%
    Show more